This is the latest recevied weather packets stored in our database for station/object SQ6IUS-13. If no packets are shown the sender has not sent any weather packets the latest 10 day(s).
| Time | Temp. | Humidity | Pressure | Rain* | Wind** | Luminosity | Snow |
|---|---|---|---|---|---|---|---|
| 1788195017 | 22.22° C | 100% | 1013.8 hPa | - | - | - | - |
| 1788194118 | 23.33° C | 100% | 1013.9 hPa | - | - | - | - |
| 1788192321 | 23.89° C | 100% | 1014 hPa | - | - | - | - |
| 1788191422 | 27.78° C | 100% | 1013.9 hPa | - | - | - | - |
| 1788189624 | 25.56° C | 100% | 1014.1 hPa | - | - | - | - |
| 1788188726 | 26.67° C | 100% | 1014 hPa | - | - | - | - |
| 1788186928 | 22.22° C | 100% | 1014.3 hPa | - | - | - | - |
| 1788186029 | 22.78° C | 100% | 1014.3 hPa | - | - | - | - |
| 1788185130 | 24.44° C | 100% | 1014.3 hPa | - | - | - | - |
| 1788184231 | 24.44° C | 100% | 1014.4 hPa | - | - | - | - |
| 1788183333 | 23.33° C | 100% | 1014.4 hPa | - | - | - | - |
| 1788182435 | 26.11° C | 100% | 1014.5 hPa | - | - | - | - |
| 1788181535 | 24.44° C | 100% | 1014.5 hPa | - | - | - | - |
| 1788180636 | 23.89° C | 100% | 1014.5 hPa | - | - | - | - |
| 1788179737 | 23.89° C | 100% | 1014.6 hPa | - | - | - | - |
| 1788178838 | 25.56° C | 100% | 1014.4 hPa | - | - | - | - |
| 1788177939 | 20.56° C | 100% | 1014.7 hPa | - | - | - | - |
| 1788177039 | 18.33° C | 100% | 1014.9 hPa | - | - | - | - |
| 1788176140 | 18.33° C | 100% | 1014.8 hPa | - | - | - | - |
| 1788175241 | 18.33° C | 100% | 1014.2 hPa | - | - | - | - |
| 1788174348 | 18.33° C | 100% | 1014.2 hPa | - | - | - | - |
| 1788173444 | 16.67° C | 100% | 1014.7 hPa | - | - | - | - |
| 1788172545 | 16.11° C | 100% | 1015.4 hPa | - | - | - | - |
| 1788171645 | 16.11° C | 100% | 1016.1 hPa | - | - | - | - |
| 1788170746 | 16.11° C | 100% | 1016.4 hPa | - | - | - | - |
* Rain since midnight (hover to see other rain measurements)
** Current wind speed in m/s (hover to see current wind gust speed)